CAPE
2663 2979 3250 2990 2206 2211 2176 2299 2940 2551 2550 2732 2853 2965 2703 2524 2255 2214 2107 2012 1975 1927
2910 2877 2837 2568 2223 2361 2511 2423 2314 2817 2817 2860 3130 3317 3343 3277 2865 2611 2436 2261 1872 1835
3247 2978 2867 2931 3414 3037 2267 2630 3395 3213 3209 3242 3311 3608 3672 3429 3134 2644 1079 726 1741 1671
3004 3372 3261 3043 3025 3056 3027 2743 2907 3069 3129 3251 3038 3435 3701 3051 2773 1040 109 1 389 1686
2895 2935 3229 3111 2926 2879 2878 2695 2749 3415 2803 2473 2820 3543 3173 2750 2618 963 429 626 572 1411
2703 2790 2666 2945 2790 3008 2909 2754 2992 2959 2370 3018 3140 3401 3032 2768 2536 1507 945 1076 1382 1899
2409 2448 2015 1819 2014 1941 2152 2574 2852 2699 2701 3090 3301 2913 2811 2666 2469 1905 1390 1792 2009 2056
1891 1801 1880 2025 1865 2060 2512 2881 3189 3425 3244 3198 3125 3284 2296 1979 2008 2146 2348 2303 2242 2205
1561 1301 1846 2931 3552 3701 3617 3495 3386 2812 2836 2607 3071 1794 1383 1213 1033 952 1209 1563 1982 2112
1523 2275 3761 3770 3525 2513 1837 1387 1114 759 826 795 1284 1658 1506 882 573 438 380 623 857 1327
3378 4149 3370 2519 1997 1310 789 680 651 551 494 530 687 769 1024 780 88 2 23 7 13 48
4057 3071 2733 1684 906 756 613 598 517 480 678 334 300 371 374 360 5 0 0 0 0 0
3196 2809 1984 1187 852 802 791 875 1064 612 512 575 553 465 349 89 0 0 0 0 0 0
2046 1507 901 901 1122 1155 1140 1192 1113 980 782 748 748 646 488 38 0 0 0 0 0 0
CIN
-104 -60 -46 -41 -53 -55 -53 -74 -53 -125 -86 -76 -56 -41 -50 -49 -52 -38 -44 -41 -42 -40
-114 -95 -78 -71 -70 -59 -62 -67 -65 -57 -52 -46 -34 -33 -33 -31 -30 -41 -41 -45 -41 -46
-119 -114 -90 -66 -40 -54 -76 -66 -43 -44 -53 -52 -50 -29 -20 -25 -36 -46 -57 -3 -26 -57
-121 -95 -80 -67 -47 -37 -43 -57 -59 -42 -40 -43 -56 -37 -16 -52 -53 -135 -390 0 -201 -43
-137 -107 -82 -77 -72 -61 -51 -56 -47 -36 -59 -85 -70 -24 -26 -51 -43 -197 -325 -245 -261 -95
-130 -116 -106 -78 -91 -53 -46 -56 -45 -52 -82 -48 -35 -22 -31 -42 -48 -116 -186 -190 -130 -45
-132 -95 -101 -120 -93 -101 -93 -98 -60 -44 -37 -28 -19 -31 -44 -47 -62 -92 -131 -90 -58 -48
-184 -202 -156 -137 -136 -99 -55 -34 -31 -18 -21 -26 -23 -29 -70 -85 -88 -84 -62 -60 -56 -53
-263 -280 -181 -64 -39 -22 -13 -21 -25 -43 -37 -37 -18 -105 -153 -150 -144 -134 -97 -64 -51 -49
-310 -149 -50 -37 -49 -105 -121 -158 -185 -262 -249 -251 -142 -104 -113 -257 -313 -293 -278 -175 -143 -71
-108 -43 -69 -109 -119 -158 -230 -235 -264 -291 -319 -341 -243 -195 -122 -157 -499 -274 -224 -256 -294 -487
-49 -90 -92 -157 -244 -259 -284 -272 -277 -298 -208 -283 -327 -296 -248 -217 -503 0 0 0 0 0
-86 -99 -140 -208 -232 -241 -229 -197 -155 -276 -255 -148 -146 -178 -166 -306 0 0 0 0 0 0
-144 -171 -230 -238 -200 -170 -146 -117 -113 -118 -141 -125 -77 -71 -87 -375 0 0 0 0 0 0
Wind_Speed
8 5 5 5 4 4 4 2 1 4 5 7 7 6 6 4 5 6 6 7 5 4
9 8 6 7 6 5 5 4 5 6 6 5 4 5 5 4 5 5 5 6 5 3
9 8 7 6 6 6 6 4 1 1 3 3 4 5 6 4 6 4 11 18 6 3
10 8 8 6 6 6 4 5 4 5 5 4 6 6 5 6 6 8 9 6 14 8
12 11 10 9 8 7 7 6 6 5 5 6 6 6 6 7 5 7 8 12 10 11
12 12 9 9 8 7 7 7 6 6 6 6 6 5 6 6 6 5 7 8 12 13
11 10 9 8 7 7 4 6 6 5 5 4 4 6 6 6 5 6 7 9 8 7
9 6 7 7 7 6 5 4 4 3 3 4 4 3 3 4 5 5 6 7 7 7
9 8 7 7 7 6 4 4 5 5 4 4 3 1 1 2 4 6 6 6 7 7
9 8 7 7 7 5 6 5 4 2 1 3 4 4 5 3 2 5 6 7 6 8
7 7 8 7 7 5 3 3 2 3 4 3 4 6 7 7 5 5 6 7 8 7
7 7 7 7 7 4 3 0 2 3 4 3 6 8 10 7 5 6 7 6 7 6
8 5 6 5 4 2 2 3 4 4 4 7 8 10 11 7 4 6 5 7 7 6
8 8 8 7 4 4 3 4 5 6 5 5 7 8 12 12 4 5 4 4 4 3
Wind_Direction
194 199 209 204 204 218 235 175 237 183 197 231 227 228 230 230 234 232 244 249 239 248
192 191 202 219 217 221 217 232 207 198 203 228 237 250 258 248 257 247 248 240 235 249
184 190 198 204 223 215 224 235 260 257 214 241 260 266 265 259 251 283 20 337 289 253
188 184 189 204 219 225 220 219 223 234 237 250 263 262 264 259 268 75 84 287 279 268
185 192 193 202 210 210 218 221 227 228 226 250 254 255 267 273 266 142 184 222 256 275
184 188 188 195 207 199 206 213 215 205 231 247 253 251 263 262 269 221 206 236 245 250
178 170 186 194 188 198 209 210 211 227 238 268 266 268 262 270 274 244 232 236 247 246
157 137 161 146 142 138 127 151 162 188 263 265 262 274 311 308 308 305 282 265 255 251
125 127 137 132 131 147 132 61 77 68 48 17 354 143 184 300 315 310 313 311 303 283
133 141 140 133 114 117 110 109 101 63 28 313 300 217 230 233 260 302 304 302 305 312
132 125 117 120 111 114 93 107 167 269 272 273 290 274 266 266 275 283 282 287 288 294
113 125 113 120 132 142 124 305 261 280 290 312 287 266 257 259 276 286 285 283 294 298
121 123 112 128 142 161 156 214 231 242 268 272 275 274 265 237 228 256 267 288 283 286
126 139 156 161 163 183 212 239 274 273 270 274 278 293 297 302 243 242 253 258 289 15